Regional Weather Roundup
Issued by NWS

Home | Current Version | Previous Version | Text Only | Print | Product List | Glossary On
Versions: 1 2 3 4 5 6 7 8 9 10 11 12 13 14 15 16 17 18 19 20 21 22 23 24 25 26 27 28 29 30 31 32 33 34 35 36 37 38 39 40 41 42 43 44 45 46 47 48 49 50
000
ASUS43 KLMK 220310
RWRKY
KENTUCKY REGIONAL WEATHER ROUNDUP
NATIONAL WEATHER SERVICE LOUISVILLE KY
1000 PM EST SUN DEC 21 2014

NOTE "FAIR" INDICATES FEW OR NO CLOUDS BELOW 12,000 FEET
WITH NO SIGNIFICANT WEATHER AND/OR OBSTRUCTIONS TO VISIBILITY.

KYZ001>023-026-027-061>063-070>075-220400-
WESTERN AND SOUTH CENTRAL KENTUCKY

CITY           SKY/WX    TMP DP  RH WIND       PRES   REMARKS
PADUCAH        MOCLDY    36  29  75 E6        30.01F WCI  31
HENDERSON      CLEAR     36  27  69 E6        30.05F WCI  31
OWENSBORO      CLEAR     37  29  73 E8        30.05F WCI  31
HOPKINSVILLE   CLEAR     40  31  70 E5        30.03F
BOWLING GREEN  CLOUDY    42  29  59 E5        30.06F
GLASGOW        CLOUDY    39  29  68 NE3       30.06F
$$

KYZ024-025-028>034-038-045-046-053-220400-
NORTH CENTRAL KENTUCKY

CITY           SKY/WX    TMP DP  RH WIND       PRES   REMARKS
LOUISVILLE/SDF CLEAR     34  27  75 CALM      30.11F
LOUISVILLE/LOU CLEAR     35  27  72 E5        30.11F WCI  31
FORT KNOX      PTCLDY    33  28  82 NE6       30.08F WCI  27
$$

KYZ035>037-039>044-047>052-055>060-089>105-220400-
NORTHEAST KENTUCKY

CITY           SKY/WX    TMP DP  RH WIND       PRES   REMARKS
LEXINGTON      FAIR      32  27  81 E6        30.11F WCI  26
COVINGTON      PTCLDY    29  23  78 E5        30.12F WCI  24
FRANKFORT      PTCLDY    30  25  81 E5        30.11F WCI  25
$$

KYZ054-064>069-076>088-106>120-220400-
SOUTHEAST KENTUCKY

CITY           SKY/WX    TMP DP  RH WIND       PRES   REMARKS
JACKSON        CLOUDY    37  26  64 NE6       30.10F WCI  32
LONDON         CLOUDY    40  29  64 CALM      30.09F
SOMERSET       CLOUDY    37  28  70 E5        30.10F WCI  34
MIDDLESBORO    CLOUDY    38  35  89 CALM      30.12S
MONTICELLO     CLOUDY    38  33  82 CALM      30.11F
$$



USA.gov is the U.S. government's official web portal to all federal, state and local government web resources and services.